(190304) = 1997 EP4 = 1999 VY203

Discovered at Kitt Peak on 1997-03-02 by Spacewatch.

Orbit

Orbit type: Main Belt

Note: WebGL enabled browser required.

epoch2024-03-31.0
epoch JD2460400.5
perihelion date2022-04-16.37259
perihelion JD2459685.87259
argument of perihelion (°)276.21288
ascending node (°)60.15915
inclination (°)0.84584
eccentricity0.0810542
perihelion distance (AU)2.5504839
Tisserand w.r.t. Jupiter3.3
ΔV w.r.t. Earth (km/sec)10.0
semimajor axis (AU)2.7754453
mean anomaly (°)152.32967
mean daily motion (°/day)0.21315960
aphelion distance (AU)3.000
period (years)4.62
P-vector [x]0.91607321
P-vector [y]-0.36183643
P-vector [z]-0.17287066
Q-vector [x]0.40080657
Q-vector [y]0.83992608
Q-vector [z]0.36589381
absolute magnitude16.25
phase slope0.15
uncertainty0
referenceMPEC 2024-C145
observations used510
oppositions17
arc length (days)9843
first opposition used1997
last opposition used2024
residual rms (arc-secs)0.74
perturbers coarse indicatorM-v
perturbers precise indicator003Ek
first observation date used1997-03-02.0
last observation date used2024-02-12.0
computer nameMPCLINUX
JD of orbit computation2456670.755012
perihelion JD uncertainty (days)1.7175E-04
argument of perihelion uncertainty (°)3.2605E-04
ascending node uncertainty (°)3.2396E-04
inclination uncertainty (°)5.4545E-06
eccentricity uncertainty 5.6387E-08
perihelion distance uncertainty (AU)1.4870E-07
Minimum Orbit Intersection Distances (in AU)
for orbit epoch: 2460200.5, reference: E2024-CE5
Mercury2.14376
Venus1.82362
Earth1.54029
Mars1.16934
Jupiter2.27605
Saturn6.15948
Uranus15.4477
Neptune27.1606

Observations

518 total observations over interval: 1997 03 02.38483 – 2024 02 12.289523
These data are available for download (format description).

Date (UT) J2000 RA J2000 Dec Magn Location Ref
1997 03 02.38483 12 28 45.57 -01 55 48.9 20.2 V 691 – Steward Observatory, Kitt Peak-Spacewatch MPC 29235
1997 03 02.40583 12 28 44.74 -01 55 43.2 21.1 V 691 – Steward Observatory, Kitt Peak-Spacewatch MPC 29235
1997 03 02.42782 12 28 43.88 -01 55 38.2 20.4 V 691 – Steward Observatory, Kitt Peak-Spacewatch MPC 29235
1997 03 07.37920 12 25 29.15 -01 34 20.9 20.8 V 691 – Steward Observatory, Kitt Peak-Spacewatch MPC 29235
1997 03 07.40019 12 25 28.23 -01 34 15.2 21.0 V 691 – Steward Observatory, Kitt Peak-Spacewatch MPC 29235
1997 03 09.37487 12 24 04.44 -01 25 09.9 20.6 V 691 – Steward Observatory, Kitt Peak-Spacewatch MPC 29235
1997 03 09.39581 12 24 03.50 -01 25 03.8 20.8 V 691 – Steward Observatory, Kitt Peak-Spacewatch MPC 29235
1997 03 09.41680 12 24 02.58 -01 24 57.9 20.6 V 691 – Steward Observatory, Kitt Peak-Spacewatch MPC 29235
1997 03 14.36803 12 20 20.37 -01 01 01.6 21.1 V 691 – Steward Observatory, Kitt Peak-Spacewatch MPS 79474
1997 03 14.39981 12 20 18.81 -01 00 52.0 21.6 V 691 – Steward Observatory, Kitt Peak-Spacewatch MPS 79474
1997 03 14.42878 12 20 17.46 -01 00 43.0 21.4 V 691 – Steward Observatory, Kitt Peak-Spacewatch MPS 79474
1999 11 09.21402 02 13 48.06 +12 56 18.5 19.3   704 – Lincoln Laboratory ETS, New Mexico MPS 15601
1999 11 09.23016 02 13 47.16 +12 56 14.1 19.7   704 – Lincoln Laboratory ETS, New Mexico MPS 15601
1999 11 09.24466 02 13 46.36 +12 56 10.9 20.0   704 – Lincoln Laboratory ETS, New Mexico MPS 15601
1999 11 09.25969 02 13 45.69 +12 56 07.4 19.8   704 – Lincoln Laboratory ETS, New Mexico MPS 15601
1999 11 10.30262 02 12 53.87 +12 52 04.7 20.0 V 691 – Steward Observatory, Kitt Peak-Spacewatch MPS 15601
1999 11 10.32600 02 12 52.68 +12 51 59.2 19.9 V 691 – Steward Observatory, Kitt Peak-Spacewatch MPS 15601
1999 11 10.34769 02 12 51.59 +12 51 54.2 19.8 V 691 – Steward Observatory, Kitt Peak-Spacewatch MPS 15601
2002 02 20.47099 14 34 30.05 -14 29 01.4 22.0 V 691 – Steward Observatory, Kitt Peak-Spacewatch MPS 56795
2002 02 20.49284 14 34 30.54 -14 29 04.4 21.6 V 691 – Steward Observatory, Kitt Peak-Spacewatch MPS 56795
2002 02 20.51490 14 34 30.88 -14 29 05.1 22.0 V 691 – Steward Observatory, Kitt Peak-Spacewatch MPS 56795
2002 04 08.35740 14 24 23.46 -13 41 06.8 21.4 V 691 – Steward Observatory, Kitt Peak-Spacewatch MPS 56795
2002 04 08.37984 14 24 22.47 -13 41 02.6 21.2 V 691 – Steward Observatory, Kitt Peak-Spacewatch MPS 56795
2002 04 08.40243 14 24 21.46 -13 40 57.5 21.0 V 691 – Steward Observatory, Kitt Peak-Spacewatch MPS 56795
2002 04 13.32471 14 20 39.78 -13 23 18.4 20.8 V 691 – Steward Observatory, Kitt Peak-Spacewatch MPS 54234
2002 04 13.34610 14 20 38.71 -13 23 13.5 21.4 V 691 – Steward Observatory, Kitt Peak-Spacewatch MPS 54234
2002 04 13.36754 14 20 37.67 -13 23 08.6 21.1 V 691 – Steward Observatory, Kitt Peak-Spacewatch MPS 54234
2002 04 14.34100 14 19 51.76 -13 19 28.2 19.2   704 – Lincoln Laboratory ETS, New Mexico MPS 54234
2002 04 14.35505 14 19 51.03 -13 19 25.0 19.9   704 – Lincoln Laboratory ETS, New Mexico MPS 54234
2002 04 14.36921 14 19 50.27 -13 19 22.2 20.2   704 – Lincoln Laboratory ETS, New Mexico MPS 54234
2002 04 14.38329 14 19 49.63 -13 19 18.2 20.3   704 – Lincoln Laboratory ETS, New Mexico MPS 54234
2002 04 19.33847 14 15 47.10 -12 59 45.5 20.4 V 291 – LPL/Spacewatch II MPS 62520
2002 04 19.35898 14 15 46.06 -12 59 40.7 20.9 V 291 – LPL/Spacewatch II MPS 62520
2002 04 19.38050 14 15 44.96 -12 59 35.4 20.8 V 291 – LPL/Spacewatch II MPS 62520
2006 01 25.47870 11 17 57.87 +05 46 28.1   691 – Steward Observatory, Kitt Peak-Spacewatch MPS 160161
2006 01 25.49610 11 17 57.48 +05 46 30.7   691 – Steward Observatory, Kitt Peak-Spacewatch MPS 160161
2006 01 25.51343 11 17 57.15 +05 46 32.6   691 – Steward Observatory, Kitt Peak-Spacewatch MPS 160161
2006 01 26.42861 11 17 38.68 +05 48 46.7 21.1 V G96 – Mt. Lemmon Survey MPS 160161
2006 01 26.43458 11 17 38.58 +05 48 47.4 20.6 V G96 – Mt. Lemmon Survey MPS 160161
2006 01 26.44058 11 17 38.43 +05 48 48.6 21.3 V G96 – Mt. Lemmon Survey MPS 160161
2006 01 26.44653 11 17 38.29 +05 48 49.3 21.1 V G96 – Mt. Lemmon Survey MPS 160161
2006 01 31.45738 11 15 37.24 +06 03 05.6 20.8 V 691 – Steward Observatory, Kitt Peak-Spacewatch MPS 161554
2006 01 31.47477 11 15 36.74 +06 03 09.1 20.8 V 691 – Steward Observatory, Kitt Peak-Spacewatch MPS 161554
2006 01 31.49215 11 15 36.25 +06 03 12.0 20.9 V 691 – Steward Observatory, Kitt Peak-Spacewatch MPS 161554
2006 02 20.29768 11 03 00.25 +07 26 05.2   691 – Steward Observatory, Kitt Peak-Spacewatch MPS 163541
2006 02 20.31493 11 02 59.37 +07 26 10.1   691 – Steward Observatory, Kitt Peak-Spacewatch MPS 163541
2006 02 20.33223 11 02 58.54 +07 26 15.2   691 – Steward Observatory, Kitt Peak-Spacewatch MPS 163541
2006 02 24.23882 10 59 51.93 +07 45 48.0 20.5 V 691 – Steward Observatory, Kitt Peak-Spacewatch MPS 163541
2006 02 24.25621 10 59 51.06 +07 45 53.1 20.7 V 691 – Steward Observatory, Kitt Peak-Spacewatch MPS 163541
2006 02 24.27359 10 59 50.18 +07 45 59.1 20.5 V 691 – Steward Observatory, Kitt Peak-Spacewatch MPS 163541
2006 03 02.20153 10 54 56.19 +08 16 11.2 20.3 V 691 – Steward Observatory, Kitt Peak-Spacewatch MPS 164901
2006 03 02.21886 10 54 55.29 +08 16 16.3 20.2 V 691 – Steward Observatory, Kitt Peak-Spacewatch MPS 164901
2006 03 02.23613 10 54 54.41 +08 16 21.9 20.2 V 691 – Steward Observatory, Kitt Peak-Spacewatch MPS 164901
2008 08 23.40948 00 56 02.24 +04 48 19.6   691 – Steward Observatory, Kitt Peak-Spacewatch MPS 254374
2008 08 23.42707 00 56 02.00 +04 48 18.0   691 – Steward Observatory, Kitt Peak-Spacewatch MPS 254374
2008 08 23.44467 00 56 01.73 +04 48 16.7   691 – Steward Observatory, Kitt Peak-Spacewatch MPS 254374
2008 09 02.32832 00 52 46.15 +04 26 23.3 20.0 V 691 – Steward Observatory, Kitt Peak-Spacewatch MPS 255152
2008 09 02.34588 00 52 45.66 +04 26 20.3 20.1 V 691 – Steward Observatory, Kitt Peak-Spacewatch MPS 255152
2008 09 02.36344 00 52 45.14 +04 26 17.2 19.9 V 691 – Steward Observatory, Kitt Peak-Spacewatch MPS 255152
2008 09 06.35412 00 50 46.87 +04 13 33.0   691 – Steward Observatory, Kitt Peak-Spacewatch MPS 255725
2008 09 06.37171 00 50 46.26 +04 13 29.7   691 – Steward Observatory, Kitt Peak-Spacewatch MPS 255725
2008 09 06.38930 00 50 45.66 +04 13 26.1   691 – Steward Observatory, Kitt Peak-Spacewatch MPS 255725
2008 09 24.18488 00 38 30.44 +02 56 27.6 19.9 V 691 – Steward Observatory, Kitt Peak-Spacewatch MPS 257666
2008 09 24.20248 00 38 29.58 +02 56 22.5 19.7 V 691 – Steward Observatory, Kitt Peak-Spacewatch MPS 257666
2008 09 24.22008 00 38 28.69 +02 56 17.4 19.6 V 691 – Steward Observatory, Kitt Peak-Spacewatch MPS 257666
2008 09 28.22614 00 35 13.71 +02 36 15.1 19.6   704 – Lincoln Laboratory ETS, New Mexico MPS 259024
2008 09 28.23855 00 35 13.07 +02 36 11.2 20.1   704 – Lincoln Laboratory ETS, New Mexico MPS 259024
2008 09 28.25077 00 35 12.50 +02 36 08.2 20.0   704 – Lincoln Laboratory ETS, New Mexico MPS 259024
2008 09 28.26292 00 35 11.87 +02 36 04.6 19.7   704 – Lincoln Laboratory ETS, New Mexico MPS 259024
2008 09 28.27507 00 35 11.29 +02 36 00.9 20.3   704 – Lincoln Laboratory ETS, New Mexico MPS 259024
2008 09 29.28184 00 34 21.57 +02 30 55.9 20.0   704 – Lincoln Laboratory ETS, New Mexico MPS 259024
2008 09 29.29413 00 34 21.04 +02 30 52.7 20.0   704 – Lincoln Laboratory ETS, New Mexico MPS 259024
2008 09 29.30641 00 34 20.32 +02 30 49.2 19.8   704 – Lincoln Laboratory ETS, New Mexico MPS 259024
2008 09 29.31872 00 34 19.71 +02 30 44.9 19.7   704 – Lincoln Laboratory ETS, New Mexico MPS 259024
2008 09 29.33099 00 34 19.06 +02 30 41.5 19.8   704 – Lincoln Laboratory ETS, New Mexico MPS 259024
2008 10 01.29345 00 32 42.25 +02 20 48.3 19.3 V G96 – Mt. Lemmon Survey MPS 259024
2008 10 01.29892 00 32 41.96 +02 20 46.7 19.4 V G96 – Mt. Lemmon Survey MPS 259024
2008 10 01.30441 00 32 41.71 +02 20 44.9 19.3 V G96 – Mt. Lemmon Survey MPS 259024
2008 10 01.30987 00 32 41.42 +02 20 43.4 19.2 V G96 – Mt. Lemmon Survey MPS 259024
2008 10 17.22240 00 20 21.85 +01 06 53.9 19.8 V 691 – Steward Observatory, Kitt Peak-Spacewatch MPS 260466
2008 10 17.25930 00 20 20.24 +01 06 45.0 19.8 V 691 – Steward Observatory, Kitt Peak-Spacewatch MPS 260466
